#timestamp,LO_Frequency,Hit,StdDev 
1550224815.3,286046987.3,P
1550224835.1,286046989.9,P
1550224855.8,286046987.5,Y
1550224875.7,286047002.3,P
1550224895.5,286047001.1,N
1550224915.4,286047000.9,N
1550224935.2,286046999.2,N
1550224955.0,286046999.4,N
1550224955.9,286046999.4,N
1550224975.8,286046995.4,N
1550224995.6,286046995.6,N
1550225015.5,286046999.3,N
1550225035.3,286046995.5,N
1550225055.1,286046995.0,N
1550225075.9,286046991.1,N
1550225095.7,286046989.6,N
1550225115.5,286046989.5,N
1550225135.4,286046994.8,N
1550225155.2,286046991.4,N
1550225175.1,286046986.7,Y
1550225176.0,286046986.7,P
1550225195.8,286046987.0,N
1550225215.6,286046982.1,P
1550225235.5,286046984.0,Y
1550225255.3,286046996.0,P
1550225275.2,286046987.9,N
1550225295.9,286046983.9,P
1550225315.7,286046983.8,Y
1550225335.6,286046996.8,P
1550225355.4,286046998.1,N
1550225375.3,286046999.5,N
1550225395.1,286046998.9,N
1550225396.0,286046998.9,N
1550225415.8,286047004.1,N
1550225435.7,286046999.8,N
1550225455.5,286046998.3,N
1550225475.3,286046997.1,N
1550225495.2,286046996.2,N
1550225515.0,286046991.2,N
1550225515.9,286046991.2,N
1550225535.8,286046993.9,N
1550225555.6,286046994.4,N
1550225575.4,286046989.6,N
1550225595.3,286046988.2,N
1550225615.1,286046982.1,Y
1550225635.9,286046988.8,P
1550225655.7,286046984.4,P
1550225675.5,286046979.0,P
1550225695.4,286046977.3,Y
1550225715.2,286046986.9,P
1550225735.0,286046983.0,P
1550225736.0,286046983.0,P
1550225755.8,286046985.1,Y
1550225775.6,286046997.5,P
1550225795.5,286046998.4,N
1550225815.3,286046994.2,N
1550225835.1,286046997.4,N
1550225855.9,286046998.4,N
1550225875.7,286046996.8,N
1550225895.6,286046988.9,N
1550225915.4,286046986.9,N
1550225935.2,286046985.7,N
1550225955.1,286046985.6,N
1550225956.0,286046985.6,N
1550225975.8,286046989.3,N
1550225995.7,286046986.9,N
1550226015.5,286046993.5,N
1550226035.3,286046990.7,N
1550226055.2,286046990.1,N
1550226075.9,286046995.7,N
1550226095.7,286046993.8,N
1550226115.6,286046994.8,N
1550226135.4,286046991.8,N
1550226155.3,286046989.9,N
1550226175.1,286046982.2,Y
1550226176.0,286046982.2,P
1550226195.8,286046986.1,N
1550226215.7,286046979.2,P
1550226235.5,286046982.7,Y
1550226255.4,286047002.3,P
1550226275.2,286046996.2,N
1550226295.0,286046989.2,N
1550226295.9,286046989.2,N
1550226315.8,286046988.0,N
1550226335.6,286046988.1,N
1550226355.4,286046988.2,N
1550226375.3,286046989.6,N
1550226395.1,286046986.3,N
1550226415.9,286046985.3,N
1550226435.7,286046990.2,N
1550226455.5,286046995.8,N
1550226475.4,286047003.5,N
1550226495.2,286047010.3,N
1550226515.1,286047004.3,N
1550226516.0,286047004.3,N
1550226535.8,286047001.7,N
1550226555.6,286047000.7,N
1550226575.5,286046997.2,N
1550226595.3,286046999.4,N
1550226615.1,286046991.2,N
1550226635.9,286046986.3,N
1550226655.7,286046985.7,N
1550226675.6,286046988.5,N
1550226695.4,286046985.4,N
1550226715.2,286046986.7,N
1550226735.1,286046984.7,N
1550226736.0,286046984.7,N
1550226755.8,286046985.9,N
1550226775.7,286046980.9,N
1550226795.5,286046985.1,N
1550226815.3,286046985.9,N
1550226835.2,286046984.0,N
1550226855.0,286046980.6,N
1550226885.9,286046982.9,E
1550226895.9,286046990.5,N
1550226915.7,286047002.6,P
1550226935.5,286047000.5,N
1550226955.4,286046996.5,N
1550226975.2,286046994.4,N
1550226995.1,286046992.6,N
1550226996.0,286046992.6,N
1550227015.8,286046992.1,N
1550227035.6,286046991.4,N
1550227055.5,286046987.4,Y
1550227075.3,286046993.5,P
1550227095.1,286046994.4,P
1550227115.9,286046991.2,P
1550227135.7,286046990.6,Y
1550227155.6,286046999.0,P
1550227175.4,286046998.7,N
1550227195.2,286047002.7,N
1550227215.1,286046999.4,N
1550227216.0,286046999.4,N
1550227235.8,286046995.0,N
1550227255.7,286046990.9,Y
1550227275.5,286046991.8,P
1550227295.3,286046987.2,P
1550227315.2,286046986.4,P
1550227335.0,286046983.5,Y
1550227335.9,286046983.5,P
1550227355.8,286046991.4,N
1550227375.6,286046988.3,P
1550227395.4,286046984.2,Y
1550227415.3,286046997.0,P
1550227435.1,286046991.9,N
1550227455.9,286046988.8,P
1550227475.7,286046990.0,N
1550227495.5,286046985.7,Y
1550227515.4,286046993.6,P
1550227535.2,286046988.1,P
1550227555.1,286046985.7,P
1550227556.0,286046985.7,Y
1550227575.8,286047002.8,P
1550227595.6,286047001.3,N
1550227615.5,286046998.2,N
1550227635.3,286047000.4,N
1550227655.1,286047000.3,N
1550227675.9,286046996.6,N
1550227695.7,286046995.6,N
1550227715.6,286046993.3,N
1550227735.4,286046991.0,N
1550227755.2,286046988.8,N
1550227775.1,286046988.5,N
1550227776.0,286046988.5,N
1550227795.8,286046989.4,N
1550227815.7,286046989.9,N
1550227835.5,286046989.6,N
1550227855.3,286046988.7,N
1550227875.2,286046985.4,N
1550227895.0,286046986.5,N
1550227895.9,286046986.5,N
1550227915.8,286046982.3,Y
1550227935.6,286046992.0,P
1550227955.4,286046994.6,P
1550227975.3,286046994.1,P
1550227995.1,286046994.4,Y
1550228015.8,286046996.5,P
1550228035.7,286046994.9,P
1550228055.5,286046996.7,N
1550228075.4,286047004.1,N
1550228095.2,286046997.4,N
1550228115.0,286046992.7,N
1550228115.9,286046992.7,N
1550228135.8,286046990.9,N
1550228155.6,286046987.4,Y
1550228175.5,286046987.7,P
1550228195.3,286046986.0,P
1550228215.1,286046987.1,P
1550228235.9,286046988.8,N
1550228255.7,286046989.3,Y
1550228275.6,286046995.8,P
1550228295.4,286046995.0,N
1550228315.2,286046995.2,N
1550228335.1,286046995.3,N
1550228336.0,286046995.3,N
1550228355.8,286046998.7,N
1550228375.7,286046995.1,N
1550228395.5,286046997.9,N
